Weather reports worldwide

Advertisment
Ontario, or, United States of America (2074747): temperature & dewpoint: 30.05.2020 14:00:00 - 05.06.2020 14:00:00 (MDT)Ontario, or, United States of America (2074747): wind speed & gusts: 30.05.2020 14:00:00 - 05.06.2020 14:00:00 (MDT)Ontario, or, United States of America (2074747): wind direction: 30.05.2020 14:00:00 - 05.06.2020 14:00:00 (MDT)Ontario, or, United States of America (2074747): reduced air pressure: 30.05.2020 14:00:00 - 05.06.2020 14:00:00 (MDT)Ontario, or, United States of America (2074747): visibility: 30.05.2020 14:00:00 - 05.06.2020 14:00:00 (MDT)Ontario, or, United States of America (2074747): precipitation: 30.05.2020 14:00:00 - 05.06.2020 14:00:00 (MDT)
Date & Time tt [°C] td [°C] ff [km/h] ff [kn] fx [km/h] fx [kn] dd ppp [hPa] vv [km] rr [mm]
05.06.2020 14:00:00 28,9 8,9 13 7 - - SSE 1001,4 16 -
05.06.2020 13:00:00 27,8 9,4 11 6 - - - 1002,7 16 -
05.06.2020 12:00:00 24,4 8,9 0 0 - - N 1003,8 16 -
05.06.2020 11:00:00 22,8 8,9 0 0 - - N 1004,5 16 -
05.06.2020 10:00:00 20,6 7,8 0 0 - - N 1005,3 16 -
05.06.2020 09:00:00 18,9 7,8 5 3 - - WSW 1005,8 16 -
05.06.2020 08:00:00 16,1 7,8 9 5 - - W 1005,8 16 -
05.06.2020 07:00:00 12,8 6,7 11 6 - - W 1006,0 16 -
05.06.2020 06:00:00 12,2 6,7 11 6 - - W 1006,0 16 -
05.06.2020 05:00:00 13,3 6,7 9 5 - - W 1006,0 16 -
05.06.2020 04:00:00 12,2 6,7 11 6 - - WNW 1006,6 16 -
05.06.2020 03:00:00 14,4 6,7 5 3 - - W 1007,0 16 -
05.06.2020 02:00:00 14,4 6,7 0 0 - - N 1007,3 16 -
05.06.2020 01:00:00 15,6 6,7 8 4 - - WNW 1007,8 16 -
05.06.2020 00:00:00 17,8 6,1 5 3 - - WNW 1008,1 16 -
04.06.2020 23:00:00 17,8 5,0 9 5 - - NNW 1008,3 16 -
04.06.2020 22:00:00 20,6 5,6 11 6 - - N 1008,0 16 -
04.06.2020 21:00:00 24,4 5,0 5 3 - - N 1007,9 16 -
04.06.2020 20:00:00 27,8 2,8 8 4 - - NE 1008,1 16 -
04.06.2020 19:00:00 28,3 2,8 8 4 - - - 1009,0 16 -
04.06.2020 18:00:00 28,3 3,3 8 4 - - - 1009,9 16 -
04.06.2020 17:00:00 28,3 3,3 13 7 - - NE 1010,8 16 -
04.06.2020 16:00:00 27,2 2,8 8 4 - - - 1011,6 16 -
04.06.2020 15:00:00 26,1 1,7 5 3 - - S 1012,2 16 -
04.06.2020 14:00:00 26,1 1,1 0 0 - - N 1013,0 16 -
04.06.2020 13:00:00 26,7 1,1 13 7 - - NNW 1013,6 16 -
04.06.2020 12:00:00 24,4 -1,1 9 5 52 28 N 1014,4 16 -
04.06.2020 11:00:00 23,9 -1,1 26 14 - - NW 1014,7 16 -
04.06.2020 10:00:00 21,7 -2,8 22 12 - - WNW 1014,7 16 -
04.06.2020 09:00:00 20,0 -3,3 9 5 - - - 1014,6 16 -
04.06.2020 08:00:00 18,9 -2,8 13 7 - - NW 1014,0 16 -
04.06.2020 07:00:00 16,7 1,1 0 0 - - N 1013,4 16 -
04.06.2020 06:00:00 16,7 3,3 22 12 - - W 1012,7 16 -
04.06.2020 05:00:00 17,8 3,3 21 11 - - WNW 1011,9 16 -
04.06.2020 04:00:00 19,4 2,8 18 10 - - WNW 1011,5 16 -
04.06.2020 03:00:00 20,6 3,9 15 8 - - NNW 1011,4 16 -
04.06.2020 02:00:00 21,1 6,7 34 18 - - NNW 1011,2 16 -
04.06.2020 01:00:00 21,1 8,3 28 15 - - NNW 1010,9 16 -
04.06.2020 00:00:00 22,8 8,9 24 13 - - NNW 1010,4 16 -
03.06.2020 23:00:00 21,1 8,3 16 9 - - NNW 1010,2 16 -
03.06.2020 22:00:00 22,2 8,3 11 6 - - NNW 1009,9 16 -
03.06.2020 21:00:00 27,2 7,8 8 4 - - N 1009,7 16 -
03.06.2020 20:00:00 30,0 6,1 0 0 - - N 1009,9 16 -
03.06.2020 19:00:00 30,0 6,1 9 5 - - NNE 1010,4 16 -
03.06.2020 18:00:00 31,1 5,0 15 8 - - NNE 1011,0 16 -
03.06.2020 17:00:00 30,6 5,6 13 7 - - NNE 1011,9 16 -
03.06.2020 16:00:00 30,0 6,7 8 4 - - - 1012,6 16 -
03.06.2020 15:00:00 30,6 6,1 9 5 - - N 1013,5 16 -
03.06.2020 14:00:00 28,3 6,7 8 4 - - - 1014,6 16 -
03.06.2020 13:00:00 27,2 6,1 9 5 - - - 1015,4 16 -
03.06.2020 12:00:00 27,2 3,9 - - - - - 1016,0 16 -
03.06.2020 11:00:00 26,7 4,4 9 5 - - WNW 1016,4 13 -
03.06.2020 10:00:00 23,3 7,8 8 4 - - - 1016,9 16 -
03.06.2020 09:00:00 22,2 5,6 - - - - - 1017,2 16 -
03.06.2020 08:00:00 19,4 4,4 - - - - - 1016,9 16 -
03.06.2020 07:00:00 18,3 3,3 28 15 - - NW 1016,7 16 -
03.06.2020 06:00:00 17,8 2,8 9 5 - - W 1016,8 16 -
03.06.2020 05:00:00 19,4 2,2 21 11 - - NNW 1016,4 16 -
03.06.2020 04:00:00 20,6 2,2 24 13 - - NNW 1016,2 16 -
03.06.2020 03:00:00 22,2 2,8 21 11 - - NNW 1015,9 16 -
03.06.2020 02:00:00 22,8 3,9 29 16 - - NNW 1015,9 16 -
03.06.2020 01:00:00 22,8 8,3 9 5 - - NW 1015,9 16 -
03.06.2020 00:00:00 22,2 10,6 11 6 - - N 1016,1 16 -
02.06.2020 23:00:00 24,4 10,6 0 0 - - N 1015,6 16 -
02.06.2020 22:00:00 24,4 11,7 9 5 - - S 1015,5 16 -
02.06.2020 21:00:00 26,1 10,6 0 0 - - N 1015,5 16 -
02.06.2020 20:00:00 30,0 7,8 9 5 - - - 1015,6 16 -
02.06.2020 19:00:00 29,4 7,8 8 4 - - - 1016,0 16 -
02.06.2020 18:00:00 30,0 9,4 9 5 - - SE 1016,3 16 -
02.06.2020 17:00:00 29,4 7,8 13 7 - - SSE 1017,2 16 -
02.06.2020 16:00:00 29,4 4,4 8 4 - - ESE 1018,0 16 -
02.06.2020 15:00:00 27,8 7,2 5 3 - - - 1018,9 16 -
02.06.2020 14:00:00 26,7 8,9 9 5 - - S 1019,8 16 -
02.06.2020 13:00:00 26,7 9,4 5 3 - - - 1020,5 16 -
02.06.2020 12:00:00 24,4 9,4 8 4 - - ENE 1021,0 16 -
02.06.2020 11:00:00 22,8 9,4 5 3 - - - 1021,3 16 -
02.06.2020 10:00:00 20,0 9,4 5 3 - - - 1021,9 16 -
02.06.2020 09:00:00 17,2 9,4 5 3 - - - 1021,9 16 -
02.06.2020 08:00:00 15,0 9,4 8 4 - - W 1021,7 16 -
02.06.2020 07:00:00 12,2 8,9 5 3 - - W 1021,4 16 -
02.06.2020 06:00:00 12,2 8,9 8 4 - - W 1020,9 16 -
02.06.2020 05:00:00 12,8 8,9 9 5 - - WNW 1020,6 16 -
02.06.2020 04:00:00 12,8 8,9 9 5 - - WSW 1020,1 16 -
02.06.2020 03:00:00 13,3 9,4 5 3 - - SW 1019,8 16 -
02.06.2020 02:00:00 14,4 10,0 9 5 - - W 1019,8 16 -
02.06.2020 01:00:00 15,6 10,6 0 0 - - N 1019,7 16 -
02.06.2020 00:00:00 18,3 10,6 - - - - - 1019,2 16 -
01.06.2020 23:00:00 20,0 10,6 8 4 - - NNW 1018,8 16 -
01.06.2020 22:00:00 20,6 11,1 8 4 - - NW 1017,9 16 0,0
01.06.2020 21:00:00 22,2 11,7 8 4 - - WSW 1017,6 16 0,0
01.06.2020 20:00:00 23,9 8,3 9 5 - - NW 1017,6 16 -
01.06.2020 19:00:00 24,4 7,8 9 5 - - N 1016,8 16 -
01.06.2020 18:00:00 26,1 8,3 0 0 - - N 1016,5 16 -
01.06.2020 17:00:00 25,6 8,3 5 3 - - - 1016,2 16 -
01.06.2020 16:00:00 24,4 7,8 5 3 - - SSW 1016,4 16 -
01.06.2020 15:00:00 23,9 8,9 8 4 - - - 1016,3 16 -
01.06.2020 14:00:00 22,8 8,9 13 7 - - N 1016,8 16 -
01.06.2020 13:00:00 22,8 9,4 5 3 - - - 1016,7 16 -
01.06.2020 12:00:00 21,1 8,9 15 8 - - NW 1016,8 16 0,0
01.06.2020 11:00:00 21,1 9,4 15 8 - - W 1016,2 16 0,0
01.06.2020 10:00:00 20,0 9,4 5 3 - - N 1015,1 16 0,0
01.06.2020 09:00:00 17,2 9,4 8 4 - - WNW 1014,7 16 0,0
01.06.2020 08:00:00 17,2 8,3 9 5 - - WSW 1013,9 16 -
01.06.2020 07:00:00 17,8 7,2 15 8 - - WNW 1012,9 16 -
01.06.2020 06:00:00 17,8 7,2 15 8 - - NW 1012,0 16 -
01.06.2020 05:00:00 17,8 7,2 16 9 - - NW 1011,6 16 -
01.06.2020 04:00:00 17,8 7,8 8 4 - - NNW 1011,6 16 -
01.06.2020 03:00:00 17,8 7,8 8 4 - - NNW 1011,9 16 -
01.06.2020 02:00:00 17,8 8,3 5 3 - - W 1012,0 16 -
01.06.2020 01:00:00 17,8 7,8 16 9 - - NW 1011,9 16 -
01.06.2020 00:00:00 18,9 8,3 13 7 - - NW 1011,4 16 -
31.05.2020 23:00:00 18,3 8,3 9 5 - - N 1011,6 16 -
31.05.2020 22:00:00 22,2 7,8 5 3 - - N 1011,1 16 -
31.05.2020 21:00:00 23,9 6,7 0 0 - - N 1011,2 16 -
31.05.2020 20:00:00 25,6 6,1 9 5 - - NE 1011,4 16 -
31.05.2020 19:00:00 26,7 6,1 8 4 - - - 1011,3 16 -
31.05.2020 18:00:00 33,9 5,0 15 8 50 27 WSW 998,3 15 0,0
31.05.2020 17:00:00 25,6 7,2 13 7 - - ENE 1012,7 16 -
31.05.2020 16:00:00 25,0 6,7 - - - - - 1013,4 16 -
31.05.2020 15:00:00 24,4 7,2 5 3 - - - 1014,1 16 -
31.05.2020 14:00:00 23,3 6,7 5 3 - - - 1014,5 16 -
31.05.2020 13:00:00 23,3 6,7 - - - - - 1015,0 16 -
31.05.2020 12:00:00 21,7 6,7 15 8 - - W 1015,0 16 -
31.05.2020 11:00:00 21,1 6,7 16 9 - - WSW 1014,9 16 -
31.05.2020 10:00:00 20,0 7,2 11 6 - - WSW 1015,1 16 -
31.05.2020 09:00:00 18,3 7,8 5 3 - - SSE 1014,8 16 -
31.05.2020 08:00:00 17,8 8,3 - - - - - 1013,4 16 0,0
31.05.2020 07:00:00 15,6 12,2 8 4 - - N 1012,2 16 0,0
31.05.2020 06:00:00 16,1 12,2 5 3 - - SSW 1011,4 16 -
31.05.2020 05:00:00 16,1 11,7 9 5 - - SW 1010,5 16 0,0
31.05.2020 04:00:00 16,7 11,7 24 13 - - NW 1008,6 16 0,3
31.05.2020 03:00:00 17,8 12,2 15 8 - - W 1007,9 16 0,0
31.05.2020 02:00:00 20,6 11,1 16 9 - - W 1004,5 16 0,0
31.05.2020 01:00:00 22,8 11,1 24 13 - - W 1003,3 16 0,0
31.05.2020 00:00:00 23,9 11,7 24 13 48 26 W 1001,8 16 0,0
30.05.2020 23:00:00 25,0 11,1 34 18 55 30 W 1000,5 16 0,0
30.05.2020 22:00:00 26,7 10,0 26 14 - - W 999,6 11 0,0
30.05.2020 21:00:00 27,8 10,6 - - - - - 998,9 4,8 0,0
30.05.2020 20:00:00 28,9 10,6 22 12 - - WSW 998,5 4,8 0,0
30.05.2020 19:00:00 31,7 7,8 5 3 76 41 - 997,2 16 0,0
30.05.2020 18:00:00 33,9 5,0 15 8 50 27 WSW 998,3 15 0,0
30.05.2020 17:00:00 35,6 10,6 - - - - - 996,7 16 0,0
30.05.2020 16:00:00 35,0 8,9 - - - - - 997,7 16 0,0
30.05.2020 15:00:00 35,6 11,1 13 7 - - SE 998,9 16 0,0
30.05.2020 14:00:00 34,4 12,8 9 5 - - ESE 1000,4 16 0,0

tt = temperature
td = dewpoint
ff = wind speed
fx = gusts
dd = wind direction
ppp = reduced air pressure
vv = visibility
rr = precipitation

Next stations